• Join FlightAware (Why Join?)
  • Login
  • US Flag 
02:22AM EST


 

Airport Tracker/Info


-or-


 

Live Flight TrackerFlight Track Log ✈ DAL268 ✈ 10-Jul-2013 ✈ KJFK - LLBG / TLV

Flight Track Log - Related Links

Times and Time Zones

All times are in EDT time to prevent confusion due to time zone crossing. See the DAL268 flight status page for this flight to view local times or setup timezone preferences in your user account.

Time Position Orientation Groundspeed Altitude Reporting Facility
EDT Latitude Longitude Course Direction KTS MPH feet Rate Location/Type
01:54AM 40.6370 -73.7800 261° West  Level FlightAware
01:55AM 40.6380 -73.7790 37° Northeast 11 13 60 Level FlightAware
01:58AM 40.8670 -73.5664 37° Northeast  Level FlightAware Approximate
01:59AM 40.9736 -73.4613 30° Northeast  Level FlightAware Approximate
02:00AM 41.0927 -73.3687 30° Northeast  Level FlightAware Approximate
02:01AM 41.2096 -73.2738 37° Northeast  Level FlightAware Approximate
02:02AM 41.3189 -73.1655 21° North  Level FlightAware Approximate
02:02AM 40.6350 -73.7780 143° Southeast 18 21  Level FlightAware
02:03AM 40.6360 -73.7770 37° Northeast 22 25 120 Level FlightAware
02:03AM 40.6360 -73.7760 90° East 28 32 120 Level FlightAware
02:04AM 40.6380 -73.7750 21° North 32 37 120 Level FlightAware
02:04AM 40.6400 -73.7730 37° Northeast 16 18 120 Level FlightAware
02:05AM 40.6420 -73.7720 21° North 15 17 120 Level FlightAware
02:05AM 40.6440 -73.7700 37° Northeast 29 33 120 Level FlightAware
02:06AM 40.6450 -73.7700 360° North 30 35 120 Level FlightAware
02:06AM 40.6460 -73.7690 37° Northeast 30 35 180 Level FlightAware
02:07AM 40.6470 -73.7690 360° North 26 30 180 Level FlightAware
02:07AM 40.6490 -73.7670 37° Northeast 20 23 180 Level FlightAware
02:09AM 40.6490 -73.7660 90° East 12 14 240 Level FlightAware
02:10AM 40.6480 -73.7650 143° Southeast 16 18 420 Level FlightAware
02:12AM 40.6060 -73.7980 211° Southwest 172 198 1,100 720 Climbing FlightAware
02:12AM 40.5978 -73.8067 37° Northeast 171 197 1,400 1,680 Climbing Boston Center
02:12AM 40.5850 -73.8110 205° Southwest 185 213 1,900 1,740 Climbing FlightAware
02:12AM 40.5610 -73.7980 158° South 213 245 2,600 1,380 Climbing FlightAware
02:13AM 40.5560 -73.7770 107° East 220 253 3,000 1,260 Climbing FlightAware
02:13AM 40.5700 -73.7430 62° Northeast 227 261 3,600 900 Climbing FlightAware
02:14AM 40.5900 -73.7190 42° Northeast 252 290 3,800 900 Climbing FlightAware
02:14AM 40.6060 -73.7030 37° Northeast 263 303 4,200 1,320 Climbing FlightAware
02:14AM 40.6340 -73.6720 40° Northeast 286 329 4,800 1,620 Climbing FlightAware
02:17AM 40.8172 -73.4526 37° Northeast  Level Estimated
02:17AM 40.8010 -73.5160 37° Northeast 327 376 9,300  Level FlightAware
02:17AM 40.8260 -73.5000 26° Northeast 332 382 10,000 1,560 Climbing FlightAware
02:18AM 40.8890 -73.4590 26° Northeast 368 423 10,900 1,440 Climbing FlightAware
02:19AM 40.9850 -73.3970 26° Northeast 413 475 12,100 1,740 Climbing FlightAware
02:19AM 41.0620 -73.3470 26° Northeast 429 494 13,500 1,920 Climbing FlightAware
02:20AM 41.1170 -73.2940 36° Northeast 440 506 14,600 1,740 Climbing FlightAware
02:21AM 41.1950 -73.2050 41° Northeast 457 526 16,000 1,680 Climbing FlightAware
02:22AM 41.2660 -73.1280 39° Northeast 469 540 17,200 900 Climbing FlightAware
02:22AM 41.3190 -73.0720 38° Northeast 469 540 17,200  Level FlightAware
02:23AM 41.3890 -73.0000 38° Northeast 469 540 17,200  Level FlightAware
02:24AM 41.4410 -72.9450 38° Northeast 469 540 17,200  Level FlightAware
02:24AM 41.5110 -72.8730 38° Northeast 469 540 17,200  Level FlightAware
02:25AM 41.5630 -72.8180 38° Northeast 469 540 17,200 2,520 Level FlightAware
02:28AM 41.9640 -72.3450 41° Northeast 531 611 26,600 2,640 Climbing FlightAware
02:29AM 42.0420 -72.2550 41° Northeast 536 617 27,300 1,080 Climbing FlightAware
02:31AM 42.2520 -72.0100 41° Northeast 540 621 29,700 1,260 Climbing FlightAware
02:32AM 42.3680 -71.8740 41° Northeast 527 606 31,000 780 Climbing FlightAware
02:32AM 42.4520 -71.7770 40° Northeast 525 604 31,000  Level FlightAware
02:33AM 42.5270 -71.6890 41° Northeast 525 604 31,000  Level FlightAware
02:34AM 42.5990 -71.6040 41° Northeast 527 606 31,000  Level FlightAware
02:34AM 42.6800 -71.5080 41° Northeast 527 606 31,000  Level FlightAware
02:35AM 42.7540 -71.4180 42° Northeast 529 609 31,000  Level FlightAware
02:36AM 42.8340 -71.3240 41° Northeast 531 611 31,000  Level FlightAware
02:36AM 42.9050 -71.2370 42° Northeast 533 613 31,000  Level FlightAware
02:37AM 42.9910 -71.1350 41° Northeast 536 617 31,000  Level FlightAware
02:38AM 43.0640 -71.0470 41° Northeast 538 619 31,000  Level FlightAware
02:39AM 43.1470 -70.9460 42° Northeast 538 619 31,000  Level FlightAware
02:39AM 43.2230 -70.8550 41° Northeast 539 620 31,000  Level FlightAware
02:40AM 43.3050 -70.7550 42° Northeast 538 619 31,000  Level FlightAware
02:41AM 43.3770 -70.6660 42° Northeast 539 620 31,000  Level FlightAware
02:41AM 43.4470 -70.5790 42° Northeast 541 623 31,000  Level FlightAware
02:42AM 43.5290 -70.4780 42° Northeast 541 623 31,000  Level FlightAware
02:43AM 43.5950 -70.3970 42° Northeast 541 623 31,000  Level FlightAware
02:43AM 43.6710 -70.3030 42° Northeast 541 623 31,000  Level FlightAware
02:44AM 43.7450 -70.2100 42° Northeast 541 623 31,000  Level FlightAware
02:44AM 43.7840 -70.1610 42° Northeast 542 624 31,000  Level FlightAware
02:45AM 43.9010 -70.0140 42° Northeast 541 623 31,000  Level FlightAware
02:46AM 43.9740 -69.9230 42° Northeast 540 621 31,000  Level FlightAware
02:47AM 44.0450 -69.8340 42° Northeast 541 623 31,000  Level FlightAware
02:47AM 44.1030 -69.7610 42° Northeast 541 623 31,000  Level FlightAware
02:48AM 44.2050 -69.6320 42° Northeast 544 626 31,000  Level FlightAware
02:49AM 44.2820 -69.5330 43° Northeast 544 626 31,000  Level FlightAware
02:49AM 44.3540 -69.4390 43° Northeast 543 625 31,000  Level FlightAware
02:50AM 44.4460 -69.3230 42° Northeast 544 626 31,000  Level FlightAware
02:51AM 44.5190 -69.2270 43° Northeast 546 628 31,000  Level FlightAware
02:52AM 44.5930 -69.1310 43° Northeast 547 629 31,000  Level FlightAware
02:52AM 44.6770 -69.0210 43° Northeast 549 632 31,000  Level FlightAware
02:53AM 44.7590 -68.9140 43° Northeast 550 633 31,000  Level FlightAware
02:54AM 44.8320 -68.8190 43° Northeast 549 632 31,000  Level FlightAware
02:54AM 44.9130 -68.7120 43° Northeast 548 631 31,000  Level FlightAware
02:55AM 44.9760 -68.6290 43° Northeast 548 631 31,000  Level FlightAware
02:56AM 45.0590 -68.5180 43° Northeast 548 631 31,000  Level FlightAware
02:56AM 45.1320 -68.4220 43° Northeast 550 633 31,000  Level FlightAware
02:57AM 45.2060 -68.3230 43° Northeast 550 633 31,000  Level FlightAware
02:58AM 45.3110 -68.1820 43° Northeast 549 632 31,000  Level FlightAware
02:59AM 45.3890 -68.0770 43° Northeast 543 625 31,000  Level FlightAware
03:00AM 45.5190 -67.8990 44° Northeast 544 626 31,000  Level FlightAware
03:01AM 45.5760 -67.8200 44° Northeast 544 626 31,000  Level FlightAware
03:01AM 45.6820 -67.6770 43° Northeast 543 625 31,000  Level FlightAware
03:02AM 45.7540 -67.5780 44° Northeast 545 627 31,000  Level FlightAware
03:03AM 45.8370 -67.4620 44° Northeast 544 626 31,000  Level FlightAware
03:04AM 45.9120 -67.3600 43° Northeast 545 627 31,000  Level FlightAware
03:04AM 45.9840 -67.2590 44° Northeast 544 626 31,000  Level FlightAware
03:05AM 46.0900 -67.0960 47° Northeast 550 633 31,000  Level FlightAware
03:06AM 46.1540 -66.9720 53° Northeast 551 634 31,000  Level FlightAware
03:07AM 46.2220 -66.8370 54° Northeast 552 635 31,000  Level FlightAware
03:08AM 46.2830 -66.7150 54° Northeast 552 635 31,000  Level FlightAware
03:08AM 46.3290 -66.6240 54° Northeast 552 635 31,000  Level FlightAware
03:09AM 46.3910 -66.4990 54° Northeast 552 635 31,000  Level FlightAware
03:10AM 46.4370 -66.4070 54° Northeast 552 635 31,000  Level FlightAware
03:10AM 46.4850 -66.3130 53° Northeast 552 635 31,000  Level FlightAware
03:11AM 46.5430 -66.1960 54° Northeast 552 635 31,000  Level FlightAware
03:12AM 46.6200 -66.0420 54° Northeast 552 635 31,000  Level FlightAware
03:13AM 46.6810 -65.9190 54° Northeast 552 635 31,000  Level FlightAware
03:13AM 46.7270 -65.8270 54° Northeast 552 635 31,000  Level FlightAware
03:14AM 46.7880 -65.7040 54° Northeast 552 635 31,000  Level FlightAware
03:15AM 46.8610 -65.5580 54° Northeast 552 635 31,000  Level FlightAware
03:16AM 46.9260 -65.4270 54° Northeast 552 635 31,000  Level FlightAware
03:17AM 47.2333 -65.2333 54° Northeast 550 633 31,000  Level Moncton Center
03:18AM 47.3333 -65.0667 48° Northeast 540 621 31,000  Level Moncton Center
03:19AM 47.4500 -64.9167 41° Northeast 540 621 31,000  Level Moncton Center
03:20AM 47.5500 -64.7500 48° Northeast 540 621 31,000  Level Moncton Center
03:21AM 47.6500 -64.6000 45° Northeast 540 621 31,000 360 Level Moncton Center
03:22AM 47.7667 -64.4167 47° Northeast 540 621 31,800 660 Climbing Moncton Center
03:23AM 47.8667 -64.2500 48° Northeast 540 621 32,400 300 Climbing Moncton Center
03:24AM 47.9667 -64.1000 45° Northeast 540 621 32,400  Level Moncton Center
03:25AM 48.0833 -63.9500 41° Northeast 540 621 32,400 180 Level Moncton Center
03:26AM 48.1833 -63.8000 45° Northeast 540 621 32,800 300 Climbing Moncton Center
03:27AM 48.2833 -63.6167 51° Northeast 540 621 33,000 60 Climbing Moncton Center
03:28AM 48.3833 -63.4667 45° Northeast 540 621 33,000  Level Moncton Center
03:29AM 48.5000 -63.2833 46° Northeast 540 621 33,000  Level Moncton Center
03:30AM 48.6000 -63.1333 45° Northeast 540 621 33,000  Level Moncton Center
03:31AM 48.7000 -62.9833 45° Northeast 540 621 33,000  Level Moncton Center
03:32AM 48.8167 -62.8000 46° Northeast 550 633 33,000  Level Moncton Center
03:33AM 48.9167 -62.6333 48° Northeast 540 621 33,000  Level Moncton Center
03:34AM 49.0000 -62.4500 55° Northeast 550 633 33,000 -60 Level Moncton Center
03:35AM 49.1167 -62.3000 40° Northeast 540 621 32,900  Descending Moncton Center
03:36AM 49.2167 -62.1333 47° Northeast 530 610 33,000  Climbing Moncton Center
03:37AM 49.3167 -61.9500 50° Northeast 520 598 33,000  Level Moncton Center
03:38AM 49.4167 -61.8000 44° Northeast 530 610 33,000  Level Moncton Center
03:39AM 49.5167 -61.6333 47° Northeast 530 610 33,000  Level Moncton Center
03:40AM 49.6167 -61.4500 50° Northeast 530 610 33,000  Level Moncton Center
03:41AM 49.7167 -61.2833 47° Northeast 540 621 33,000  Level Moncton Center
03:42AM 49.8167 -61.1000 50° Northeast 540 621 33,000  Level Moncton Center
03:43AM 49.9167 -60.9333 47° Northeast 540 621 33,000  Level Moncton Center
03:44AM 50.0167 -60.7500 50° Northeast 540 621 33,000  Level Moncton Center
03:45AM 50.1167 -60.5833 47° Northeast 540 621 33,000  Level Moncton Center
03:46AM 50.2333 -60.4000 45° Northeast 540 621 33,000  Level Moncton Center
03:47AM 50.3167 -60.2333 52° Northeast 540 621 33,000  Level Moncton Center
03:48AM 50.4167 -60.0667 47° Northeast 540 621 33,000  Level Moncton Center
03:49AM 50.5167 -59.9000 47° Northeast 540 621 33,000  Level Moncton Center
03:50AM 50.6167 -59.7000 52° Northeast 540 621 33,000  Level Moncton Center
03:51AM 50.7167 -59.5333 47° Northeast 540 621 33,000  Level Moncton Center
03:52AM 50.8000 -59.3167 59° Northeast 540 621 33,000  Level Moncton Center
03:53AM 50.8833 -59.1500 52° Northeast 540 621 33,000  Level Moncton Center
03:54AM 50.9667 -58.9500 56° Northeast 530 610 33,000  Level Moncton Center
03:55AM 51.0667 -58.7500 51° Northeast 530 610 33,000  Level Moncton Center
03:56AM 51.1500 -58.5500 56° Northeast 530 610 33,000  Level Moncton Center
03:57AM 51.2500 -58.3833 46° Northeast 530 610 33,000  Level Moncton Center
03:58AM 51.3333 -58.1833 56° Northeast 530 610 33,000  Level Moncton Center
03:59AM 51.4167 -57.9833 56° Northeast 540 621 33,000  Level Moncton Center
04:00AM 51.5000 -57.8000 54° Northeast 550 633 33,000  Level Moncton Center
04:01AM 51.5833 -57.6000 56° Northeast 520 598 33,000  Level Moncton Center
04:02AM 51.6667 -57.4333 51° Northeast 530 610 33,000  Level Moncton Center
04:03AM 51.7667 -57.2167 53° Northeast 530 610 33,000  Level Moncton Center
04:04AM 51.8500 -57.0167 56° Northeast 520 598 33,000  Level Moncton Center
04:05AM 51.9333 -56.8167 56° Northeast 520 598 33,000  Level Moncton Center
04:06AM 52.0167 -56.6333 54° Northeast 520 598 33,000  Level Moncton Center
04:07AM 52.1000 -56.4333 56° Northeast 520 598 33,000  Level Moncton Center
04:08AM 52.1833 -56.2500 53° Northeast 520 598 33,000  Level Moncton Center
04:09AM 52.2667 -56.0500 56° Northeast 520 598 33,000  Level Moncton Center
04:10AM 52.3333 -55.8667 59° Northeast 520 598 33,000  Level Moncton Center
04:11AM 52.4167 -55.6667 56° Northeast 530 610 33,000  Level Moncton Center
04:12AM 52.5167 -55.4500 53° Northeast 530 610 33,000  Level Moncton Center
04:13AM 52.6000 -55.2667 53° Northeast 520 598 33,000  Level Moncton Center
04:14AM 52.6833 -55.0500 58° Northeast 520 598 33,000  Level Moncton Center
04:15AM 52.7500 -54.8500 61° Northeast 520 598 33,000  Level Moncton Center
04:16AM 52.8333 -54.6667 53° Northeast 530 610 33,000  Level Moncton Center
04:17AM 52.9167 -54.4333 59° Northeast 520 598 33,000  Level Gander Center
04:18AM 53.0000 -54.2167 57° Northeast 520 598 33,000  Level Gander Center
04:19AM 53.0833 -54.0167 55° Northeast 530 610 33,000  Level Gander Center
04:20AM 53.1333 -53.7833 70° East 530 610 33,000  Level Gander Center
04:21AM 53.2000 -53.5333 66° East 530 610 33,000  Level Gander Center
04:22AM 53.2500 -53.3000 70° East 530 610 33,000  Level Gander Center
04:23AM 53.2833 -53.0833 75° East 530 610 33,000  Level Gander Center
04:24AM 53.3500 -52.8667 63° Northeast 530 610 33,000  Level Gander Center
04:25AM 53.4000 -52.6333 70° East 530 610 33,000  Level Gander Center
04:26AM 53.4333 -52.4000 76° East 530 610 33,000  Level Gander Center
04:27AM 53.4833 -52.1667 70° East 530 610 33,000  Level Gander Center
04:28AM 53.5333 -51.9333 70° East 530 610 33,000  Level Gander Center
04:29AM 53.6000 -51.6833 66° East 520 598 33,000  Level Gander Center
04:30AM 53.6333 -51.4500 76° East 530 610 33,000  Level Gander Center
04:31AM 53.6833 -51.2667 65° Northeast 530 610 33,000  Level Gander Center
04:33AM 53.8167 -50.6167 71° East 470 541 33,000  Level Gander Center
04:34AM 53.8667 -50.4167 67° East 520 598 33,000  Level Gander Center
04:35AM 53.9167 -50.1833 70° East 520 598 33,000  Level Gander Center
04:37AM 54.0105 -49.9567 68° East  Level FlightAware Approximate
04:44AM 54.3885 -48.3562 68° East  Level FlightAware Approximate
04:45AM 54.4422 -48.1262 68° East  Level FlightAware Approximate
04:46AM 54.4955 -47.8955 68° East  Level FlightAware Approximate
04:47AM 54.5483 -47.6643 68° East  Level FlightAware Approximate
04:48AM 54.6005 -47.4323 69° East  Level FlightAware Approximate
04:49AM 54.6521 -47.1996 69° East  Level FlightAware Approximate
04:50AM 54.7034 -46.9664 69° East  Level FlightAware Approximate
04:51AM 54.7541 -46.7326 69° East  Level FlightAware Approximate
04:52AM 54.8044 -46.4982 69° East  Level FlightAware Approximate
04:53AM 54.8542 -46.2632 70° East  Level FlightAware Approximate
04:54AM 54.9036 -46.0277 70° East  Level FlightAware Approximate
04:55AM 54.9526 -45.7915 70° East  Level FlightAware Approximate
04:56AM 55.0010 -45.5548 70° East  Level FlightAware Approximate
04:57AM 55.0490 -45.3175 70° East  Level FlightAware Approximate
04:58AM 55.0966 -45.0797 71° East  Level FlightAware Approximate
04:59AM 55.1437 -44.8413 71° East  Level FlightAware Approximate
05:00AM 55.1903 -44.6023 71° East  Level FlightAware Approximate
05:01AM 55.2365 -44.3628 71° East  Level FlightAware Approximate
05:02AM 55.2821 -44.1227 71° East  Level FlightAware Approximate
05:03AM 55.3274 -43.8821 72° East  Level FlightAware Approximate
05:04AM 55.3731 -43.6415 71° East  Level FlightAware Approximate
05:05AM 55.4186 -43.4005 72° East  Level FlightAware Approximate
05:06AM 55.4636 -43.1589 72° East  Level FlightAware Approximate
05:07AM 55.5082 -42.9168 72° East  Level FlightAware Approximate
05:08AM 55.5522 -42.6741 72° East  Level FlightAware Approximate
05:09AM 55.5958 -42.4309 72° East  Level FlightAware Approximate
05:10AM 55.6389 -42.1871 73° East  Level FlightAware Approximate
05:11AM 55.6815 -41.9428 73° East  Level FlightAware Approximate
05:12AM 55.7236 -41.6980 73° East  Level FlightAware Approximate
05:13AM 55.7652 -41.4527 73° East  Level FlightAware Approximate
05:14AM 55.8064 -41.2068 73° East  Level FlightAware Approximate
05:15AM 55.8470 -40.9604 74° East  Level FlightAware Approximate
05:16AM 55.8872 -40.7136 74° East  Level FlightAware Approximate
05:17AM 55.9268 -40.4661 74° East  Level FlightAware Approximate
05:18AM 55.9660 -40.2182 74° East  Level FlightAware Approximate
05:19AM 56.0012 -39.9688 86° East  Level FlightAware Approximate
05:20AM 56.0106 -39.7113 86° East  Level FlightAware Approximate
05:21AM 56.0192 -39.4594 86° East  Level FlightAware Approximate
05:22AM 56.0274 -39.2074 87° East  Level FlightAware Approximate
05:23AM 56.0350 -38.9552 87° East  Level FlightAware Approximate
05:24AM 56.0421 -38.7030 87° East  Level FlightAware Approximate
05:25AM 56.0488 -38.4507 87° East  Level FlightAware Approximate
05:26AM 56.0549 -38.1982 87° East  Level FlightAware Approximate
05:27AM 56.0604 -37.9458 88° East  Level FlightAware Approximate
05:28AM 56.0655 -37.6932 88° East  Level FlightAware Approximate
05:29AM 56.0700 -37.4406 88° East  Level FlightAware Approximate
05:30AM 56.0741 -37.1879 88° East  Level FlightAware Approximate
05:31AM 56.0776 -36.9352 88° East  Level FlightAware Approximate
05:32AM 56.0806 -36.6824 89° East  Level FlightAware Approximate
05:33AM 56.0831 -36.4296 89° East  Level FlightAware Approximate
05:34AM 56.0850 -36.1768 89° East  Level FlightAware Approximate
05:35AM 56.0865 -35.9239 89° East  Level FlightAware Approximate
05:36AM 56.0874 -35.6710 90° East  Level FlightAware Approximate
05:37AM 56.0878 -35.4181 90° East  Level FlightAware Approximate
05:38AM 56.0877 -35.1653 90° East  Level FlightAware Approximate
05:39AM 56.0871 -34.9124 90° East  Level FlightAware Approximate
05:40AM 56.0860 -34.6595 90° East  Level FlightAware Approximate
05:41AM 56.0843 -34.4067 91° East  Level FlightAware Approximate
05:42AM 56.0830 -34.1538 90° East  Level FlightAware Approximate
05:43AM 56.0819 -33.9010 90° East  Level FlightAware Approximate
05:44AM 56.0804 -33.6482 91° East  Level FlightAware Approximate
05:45AM 56.0783 -33.3954 91° East  Level FlightAware Approximate
05:46AM 56.0757 -33.1426 91° East  Level FlightAware Approximate
05:47AM 56.0725 -32.8899 91° East  Level FlightAware Approximate
05:48AM 56.0689 -32.6372 91° East  Level FlightAware Approximate
05:49AM 56.0647 -32.3845 92° East  Level FlightAware Approximate
05:50AM 56.0601 -32.1320 92° East  Level FlightAware Approximate
05:51AM 56.0549 -31.8794 92° East  Level FlightAware Approximate
05:52AM 56.0492 -31.6270 92° East  Level FlightAware Approximate
05:53AM 56.0430 -31.3746 92° East  Level FlightAware Approximate
05:54AM 56.0362 -31.1224 93° East  Level FlightAware Approximate
05:55AM 56.0290 -30.8702 93° East  Level FlightAware Approximate
05:56AM 56.0212 -30.6181 93° East  Level FlightAware Approximate
05:57AM 56.0129 -30.3661 93° East  Level FlightAware Approximate
05:58AM 56.0042 -30.1142 93° East  Level FlightAware Approximate
05:59AM 56.0055 -29.8629 86° East  Level FlightAware Approximate
06:00AM 56.0151 -29.6115 86° East  Level FlightAware Approximate
06:01AM 56.0243 -29.3601 86° East  Level FlightAware Approximate
06:02AM 56.0329 -29.1084 86° East  Level FlightAware Approximate
06:03AM 56.0410 -28.8567 87° East  Level FlightAware Approximate
06:04AM 56.0486 -28.6049 87° East  Level FlightAware Approximate
06:05AM 56.0557 -28.3530 87° East  Level FlightAware Approximate
06:06AM 56.0623 -28.1010 87° East  Level FlightAware Approximate
06:07AM 56.0684 -27.8489 87° East  Level FlightAware Approximate
06:08AM 56.0739 -27.5968 88° East  Level FlightAware Approximate
06:09AM 56.0790 -27.3445 88° East  Level FlightAware Approximate
06:10AM 56.0835 -27.0923 88° East  Level FlightAware Approximate
06:11AM 56.0875 -26.8399 88° East  Level FlightAware Approximate
06:12AM 56.0910 -26.5875 88° East  Level FlightAware Approximate
06:13AM 56.0940 -26.3351 89° East  Level FlightAware Approximate
06:14AM 56.0965 -26.0826 89° East  Level FlightAware Approximate
06:15AM 56.0984 -25.8301 89° East  Level FlightAware Approximate
06:16AM 56.0998 -25.5776 89° East  Level FlightAware Approximate
06:17AM 56.1008 -25.3251 90° East  Level FlightAware Approximate
06:18AM 56.1012 -25.0725 90° East  Level FlightAware Approximate
06:19AM 56.1011 -24.8200 90° East  Level FlightAware Approximate
06:20AM 56.1004 -24.5674 90° East  Level FlightAware Approximate
06:21AM 56.0993 -24.3149 90° East  Level FlightAware Approximate
06:22AM 56.0976 -24.0624 91° East  Level FlightAware Approximate
06:23AM 56.0955 -23.8099 91° East  Level FlightAware Approximate
06:24AM 56.0928 -23.5574 91° East  Level FlightAware Approximate
06:25AM 56.0896 -23.3050 91° East  Level FlightAware Approximate
06:26AM 56.0859 -23.0526 91° East  Level FlightAware Approximate
06:27AM 56.0816 -22.8003 92° East  Level FlightAware Approximate
06:28AM 56.0769 -22.5481 92° East  Level FlightAware Approximate
06:29AM 56.0716 -22.2959 92° East  Level FlightAware Approximate
06:30AM 56.0659 -22.0437 92° East  Level FlightAware Approximate
06:31AM 56.0596 -21.7917 92° East  Level FlightAware Approximate
06:32AM 56.0528 -21.5397 93° East  Level FlightAware Approximate
06:33AM 56.0455 -21.2879 93° East  Level FlightAware Approximate
06:34AM 56.0376 -21.0361 93° East  Level FlightAware Approximate
06:35AM 56.0293 -20.7844 93° East  Level FlightAware Approximate
06:36AM 56.0205 -20.5329 93° East  Level FlightAware Approximate
06:37AM 56.0111 -20.2819 94° East  Level FlightAware Approximate
06:38AM 56.0013 -20.0310 94° East  Level FlightAware Approximate
06:39AM 55.9766 -19.7837 101° East  Level FlightAware Approximate
06:40AM 55.9495 -19.5371 101° East  Level FlightAware Approximate
06:41AM 55.9219 -19.2910 101° East  Level FlightAware Approximate
06:42AM 55.8938 -19.0452 101° East  Level FlightAware Approximate
06:43AM 55.8652 -18.7997 102° East  Level FlightAware Approximate
06:44AM 55.8361 -18.5546 102° East  Level FlightAware Approximate
06:45AM 55.8066 -18.3099 102° East  Level FlightAware Approximate
06:46AM 55.7765 -18.0656 102° East  Level FlightAware Approximate
06:47AM 55.7460 -17.8216 102° East  Level FlightAware Approximate
06:48AM 55.7150 -17.5781 103° East  Level FlightAware Approximate
06:49AM 55.6834 -17.3349 103° East  Level FlightAware Approximate
06:50AM 55.6515 -17.0921 103° East  Level FlightAware Approximate
06:51AM 55.6190 -16.8497 103° East  Level FlightAware Approximate
06:52AM 55.5861 -16.6077 103° East  Level FlightAware Approximate
06:53AM 55.5527 -16.3661 104° East  Level FlightAware Approximate
06:54AM 55.5188 -16.1249 104° East  Level FlightAware Approximate
06:55AM 55.4844 -15.8842 104° East  Level FlightAware Approximate
06:56AM 55.4496 -15.6439 104° East  Level FlightAware Approximate
06:57AM 55.4143 -15.4040 104° East  Level FlightAware Approximate
06:58AM 55.3787 -15.1653 105° East  Level FlightAware Approximate
06:59AM 55.3425 -14.9270 105° East  Level FlightAware Approximate
07:00AM 55.3060 -14.6892 105° East  Level FlightAware Approximate
07:01AM 55.2689 -14.4519 105° East  Level FlightAware Approximate
07:02AM 55.2314 -14.2150 105° East  Level FlightAware Approximate
07:02AM 55.4940 -13.1590 106° East 506 582 33,000  Level FlightAware
07:03AM 55.1935 -13.9785 106° East  Level FlightAware Approximate
07:03AM 55.4490 -13.0180 119° Southeast 507 583 33,000  Level FlightAware
07:04AM 55.4000 -12.8620 119° Southeast 507 583 33,000  Level FlightAware
07:04AM 55.3490 -12.7030 119° Southeast 508 585 33,000  Level FlightAware
07:05AM 55.3010 -12.5590 120° Southeast 508 585 33,000  Level FlightAware
07:06AM 55.2540 -12.4150 120° Southeast 512 589 33,000  Level FlightAware
07:06AM 55.2060 -12.2680 120° Southeast 512 589 33,000  Level FlightAware
07:07AM 55.1590 -12.1240 120° Southeast 511 588 33,000  Level FlightAware
07:08AM 55.1120 -11.9820 120° Southeast 511 588 33,000  Level FlightAware
07:08AM 55.0660 -11.8460 121° Southeast 511 588 33,000  Level FlightAware
07:09AM 55.0180 -11.7010 120° Southeast 510 587 33,000  Level FlightAware
07:10AM 54.9690 -11.5560 120° Southeast 510 587 33,000  Level FlightAware
07:10AM 54.9160 -11.4010 121° Southeast 511 588 33,000  Level FlightAware
07:12AM 54.8560 -11.2280 121° Southeast 511 588 33,000  Level FlightAware
07:12AM 54.7790 -11.0030 121° Southeast 506 582 33,000  Level FlightAware
07:13AM 54.7310 -10.8670 121° Southeast 506 582 33,000  Level FlightAware
07:14AM 54.6460 -10.6240 121° Southeast 503 579 33,000  Level FlightAware
07:15AM 54.6010 -10.4880 120° Southeast 502 578 33,000  Level FlightAware
07:16AM 54.5580 -10.2820 110° East 500 575 33,000  Level FlightAware
07:16AM 54.5230 -10.1180 110° East 500 575 33,000  Level FlightAware
07:17AM 54.4950 -9.9840 110° East 498 573 33,000  Level FlightAware
07:18AM 54.4620 -9.8190 109° East 498 573 33,000  Level FlightAware
07:18AM 54.4310 -9.6700 110° East 497 572 33,000  Level FlightAware
07:19AM 54.4040 -9.5400 110° East 494 568 33,000  Level FlightAware
07:20AM 54.3690 -9.3700 109° East 493 567 33,000  Level FlightAware
07:20AM 54.3340 -9.2080 110° East 493 567 33,000  Level FlightAware
07:21AM 54.3030 -9.0600 110° East 494 568 33,000  Level FlightAware
07:22AM 54.2670 -8.8910 110° East 492 566 33,000 -120 Level FlightAware
07:22AM 54.2404 -8.7654 110° East 496 571 32,900  Descending FlightAware UK
07:22AM 54.2400 -8.7670 110° East 491 565 33,000 120 Climbing FlightAware
07:23AM 54.2050 -8.6020 110° East 491 565 33,000  Level FlightAware
07:24AM 54.1760 -8.4710 111° Southeast 490 564 33,000 -120 Level FlightAware
07:24AM 54.1447 -8.3267 111° Southeast 496 571 32,900  Descending FlightAware UK
07:25AM 54.1400 -8.3070 111° Southeast 489 563 33,000 840 Climbing FlightAware
07:25AM 54.1100 -8.1650 110° East 490 564 33,600 1,200 Climbing FlightAware
07:26AM 54.0790 -8.0360 112° Southeast 489 563 34,500 1,020 Climbing FlightAware
07:26AM 54.0445 -7.8952 112° Southeast 490 564 34,900 720 Climbing FlightAware UK
07:26AM 54.0440 -7.8940 112° Southeast 488 562 35,000 120 Climbing FlightAware
07:27AM 54.0050 -7.7380 113° Southeast 486 559 35,000  Level FlightAware
07:28AM 53.9770 -7.6090 110° East 485 558 35,000 -120 Level FlightAware
07:28AM 53.9463 -7.4659 110° East 486 559 34,900  Descending FlightAware UK
07:28AM 53.9460 -7.4690 110° East 486 559 35,000 120 Climbing FlightAware
07:29AM 53.9090 -7.3040 111° Southeast 489 563 35,000  Level FlightAware
07:30AM 53.8900 -7.2220 111° Southeast 491 565 35,000 -180 Level FlightAware
07:30AM 53.8729 -7.1438 111° Southeast 488 562 34,900 -240 Descending FlightAware UK
07:30AM 53.8481 -7.0369 111° Southeast 488 562 34,900 60 Level FlightAware UK
07:31AM 53.8280 -6.9540 111° Southeast 491 565 35,000  Climbing FlightAware
07:31AM 53.7985 -6.8227 111° Southeast 490 564 34,900  Descending FlightAware UK
07:32AM 53.7940 -6.8050 111° Southeast 492 566 35,000 120 Climbing FlightAware
07:32AM 53.7590 -6.6580 112° Southeast 492 566 35,000 -120 Level FlightAware
07:33AM 53.7227 -6.5013 112° Southeast 492 566 34,900  Descending FlightAware UK
07:33AM 53.7230 -6.5050 112° Southeast 493 567 35,000  Climbing FlightAware
07:34AM 53.6924 -6.3729 112° Southeast 490 564 34,900  Descending FlightAware UK
07:34AM 53.6900 -6.3690 112° Southeast 493 567 35,000 120 Climbing FlightAware
07:34AM 53.6510 -6.1980 111° Southeast 492 566 35,000  Level FlightAware
07:35AM 53.6160 -6.0560 111° Southeast 492 566 35,000  Level FlightAware
07:35AM 53.6161 -6.0524 111° Southeast 490 564 35,000  Level FlightAware UK
07:36AM 53.5898 -5.9457 111° Southeast 490 564 35,000  Level FlightAware UK
07:36AM 53.5780 -5.9000 111° Southeast 491 565 35,000  Level FlightAware
07:36AM 53.5440 -5.7620 112° Southeast 491 565 35,000  Level FlightAware
07:37AM 53.5100 -5.6250 112° Southeast 492 566 35,000  Level FlightAware
07:37AM 53.5069 -5.6070 112° Southeast 488 562 35,000  Level FlightAware UK
07:38AM 53.4852 -5.4983 112° Southeast 488 562 35,000  Level FlightAware UK
07:38AM 53.4800 -5.4580 112° Southeast 492 566 35,000  Level FlightAware
07:39AM 53.4740 -5.3090 94° East 494 568 35,000  Level FlightAware
07:39AM 53.4696 -5.1323 94° East 490 564 35,000  Level FlightAware UK
07:39AM 53.4690 -5.1290 94° East 494 568 35,000  Level FlightAware
07:40AM 53.4650 -4.9910 93° East 494 568 35,000  Level FlightAware
07:41AM 53.4610 -4.8540 93° East 494 568 35,000  Level FlightAware
07:41AM 53.4550 -4.6850 93° East 494 568 35,000  Level FlightAware
07:42AM 53.4490 -4.5170 93° East 493 567 35,000  Level FlightAware
07:43AM 53.4440 -4.3720 93° East 493 567 35,000  Level FlightAware
07:43AM 53.4370 -4.1970 94° East 494 568 35,000  Level FlightAware
07:44AM 53.4310 -4.0440 94° East 495 570 35,000  Level FlightAware
07:45AM 53.4250 -3.8950 94° East 495 570 35,000  Level FlightAware
07:45AM 53.4248 -3.8705 94° East 488 562 35,000  Level FlightAware UK
07:45AM 53.4199 -3.7552 94° East 490 564 35,000  Level FlightAware UK
07:45AM 53.4200 -3.7540 94° East 495 570 35,000  Level FlightAware
07:46AM 53.3916 -3.5749 105° East 494 568 35,000  Level FlightAware ADS-B
07:46AM 53.3747 -3.5339 125° Southeast 492 566 35,000  Level FlightAware ADS-B
07:47AM 53.3177 -3.4248 131° Southeast 491 565 35,000  Level FlightAware ADS-B
07:48AM 53.2619 -3.3205 132° Southeast 491 565 35,000  Level FlightAware ADS-B
07:48AM 53.2157 -3.2342 132° Southeast 490 564 35,000  Level FlightAware UK
07:48AM 53.1951 -3.2022 132° Southeast 491 565 35,000  Level FlightAware ADS-B
07:49AM 53.1337 -3.0963 134° Southeast 492 566 35,000  Level FlightAware ADS-B
07:50AM 53.0782 -3.0013 134° Southeast 492 566 35,000  Level FlightAware ADS-B
07:50AM 53.0230 -2.9070 134° Southeast 492 566 35,000  Level FlightAware
07:50AM 53.0012 -2.8690 134° Southeast 493 567 35,000  Level FlightAware ADS-B
07:51AM 52.9499 -2.7826 135° Southeast 494 568 35,000  Level FlightAware ADS-B
07:51AM 52.8996 -2.6993 135° Southeast 493 567 35,000  Level FlightAware ADS-B
07:52AM 52.8484 -2.6134 135° Southeast 493 567 35,000  Level FlightAware ADS-B
07:52AM 52.7976 -2.5277 134° Southeast 494 568 35,000  Level FlightAware ADS-B
07:53AM 52.7492 -2.4474 135° Southeast 494 568 35,000  Level FlightAware ADS-B
07:53AM 52.6999 -2.3650 135° Southeast 494 568 35,000  Level FlightAware ADS-B
07:54AM 52.6490 -2.2827 136° Southeast 493 567 35,000  Level FlightAware ADS-B
07:55AM 52.5958 -2.1905 133° Southeast 493 567 35,000  Level FlightAware ADS-B
07:55AM 52.5497 -2.1075 132° Southeast 493 567 35,000  Level FlightAware ADS-B
07:56AM 52.5037 -2.0212 131° Southeast 494 568 35,000  Level FlightAware ADS-B
07:56AM 52.4546 -1.9323 132° Southeast 494 568 35,000  Level FlightAware ADS-B
07:57AM 52.4026 -1.8379 132° Southeast 494 568 35,000  Level FlightAware ADS-B
07:57AM 52.3545 -1.7522 133° Southeast 493 567 35,000  Level FlightAware ADS-B
07:58AM 52.3076 -1.6666 132° Southeast 493 567 35,000  Level FlightAware ADS-B
07:58AM 52.2568 -1.5758 132° Southeast 493 567 35,000  Level FlightAware ADS-B
07:59AM 52.2095 -1.4906 132° Southeast 493 567 35,000  Level FlightAware ADS-B
07:59AM 52.1571 -1.3975 133° Southeast 493 567 35,000  Level FlightAware ADS-B
08:00AM 52.1108 -1.3157 133° Southeast 493 567 35,000  Level FlightAware ADS-B
08:00AM 52.0632 -1.2311 132° Southeast 492 566 35,000  Level FlightAware ADS-B
08:01AM 52.0157 -1.1467 132° Southeast 493 567 35,000  Level FlightAware ADS-B
08:01AM 51.9690 -1.0628 132° Southeast 493 567 35,000  Level FlightAware ADS-B
08:02AM 51.9218 -0.9815 133° Southeast 493 567 35,000  Level FlightAware ADS-B
08:02AM 51.8748 -0.8980 132° Southeast 492 566 35,000  Level FlightAware ADS-B
08:03AM 51.8307 -0.8138 130° Southeast 493 567 35,000  Level FlightAware ADS-B
08:03AM 51.8106 -0.7648 124° Southeast 492 566 35,000  Level FlightAware ADS-B
08:03AM 51.7940 -0.7168 119° Southeast 493 567 35,000  Level FlightAware ADS-B
08:04AM 51.7647 -0.6166 115° Southeast 494 568 35,000  Level FlightAware ADS-B
08:04AM 51.7356 -0.5164 115° Southeast 494 568 35,000  Level FlightAware ADS-B
08:05AM 51.7061 -0.4131 115° Southeast 495 570 35,000  Level FlightAware ADS-B
08:05AM 51.6760 -0.3098 115° Southeast 495 570 35,000  Level FlightAware ADS-B
08:06AM 51.6456 -0.2069 115° Southeast 494 568 35,000  Level FlightAware ADS-B
08:06AM 51.6161 -0.1075 116° Southeast 494 568 35,000  Level FlightAware ADS-B
08:07AM 51.5859 -0.0046 115° Southeast 494 568 35,000  Level FlightAware ADS-B
08:08AM 51.5549 0.1010 115° Southeast 494 568 35,000  Level FlightAware ADS-B
08:08AM 51.5249 0.2001 116° Southeast 495 570 35,000  Level FlightAware ADS-B
08:09AM 51.4944 0.3023 116° Southeast 495 570 35,000  Level FlightAware ADS-B
08:09AM 51.4601 0.4105 117° Southeast 495 570 35,000  Level FlightAware ADS-B
08:10AM 51.4269 0.5186 116° Southeast 495 570 35,000  Level FlightAware ADS-B
08:10AM 51.3949 0.6234 116° Southeast 496 571 35,000  Level FlightAware ADS-B
08:11AM 51.3634 0.7219 117° Southeast 496 571 35,000  Level FlightAware ADS-B
08:11AM 51.3314 0.8263 116° Southeast 494 568 35,000  Level FlightAware ADS-B
08:12AM 51.2999 0.9272 116° Southeast 494 568 35,000  Level FlightAware ADS-B
08:12AM 51.2851 0.9766 116° Southeast 492 566 35,000  Level FlightAware ADS-B
08:12AM 51.2700 1.0412 110° East 491 565 35,000  Level FlightAware ADS-B
08:13AM 51.2550 1.1540 102° East 489 563 35,000  Level FlightAware
08:14AM 51.2400 1.3000 102° East 489 563 35,000  Level FlightAware
08:14AM 51.2398 1.3074 102° East 488 562 35,000  Level FlightAware UK
08:14AM 51.2240 1.4570 99° East 489 563 35,000  Level FlightAware
08:14AM 51.2220 1.4780 99° East 489 563 35,000  Level FlightAware
08:15AM 51.2048 1.6495 99° East 490 564 35,000  Level FlightAware UK
08:16AM 51.1891 1.7983 99° East 490 564 35,000  Level FlightAware UK
08:16AM 51.1880 1.8080 99° East 487 560 35,000  Level FlightAware
08:17AM 51.1720 1.9520 100° East 486 559 35,000  Level FlightAware
08:17AM 51.1592 2.0740 100° East 488 562 35,000  Level FlightAware UK
08:17AM 51.1560 2.1000 100° East 486 559 35,000  Level FlightAware
08:18AM 51.1410 2.2340 100° East 486 559 35,000  Level FlightAware
08:19AM 51.1130 2.4290 103° East 488 562 35,000  Level FlightAware
08:20AM 51.0740 2.5630 115° Southeast 490 564 35,000  Level FlightAware
08:20AM 51.0330 2.7140 113° Southeast 488 562 35,000  Level FlightAware
08:21AM 51.0080 2.8550 106° East 485 558 35,000  Level FlightAware
08:22AM 50.9850 2.9970 104° East 488 562 35,000  Level FlightAware
08:22AM 50.9640 3.1210 105° East 485 558 35,000  Level FlightAware
08:23AM 50.9370 3.2830 105° East 488 562 35,000  Level FlightAware
08:23AM 50.9334 3.3063 105° East 490 564 35,000  Level FlightAware UK
08:24AM 50.9162 3.4097 105° East 490 564 35,000  Level FlightAware UK
08:24AM 50.9110 3.4380 105° East 487 560 35,000  Level FlightAware
08:24AM 50.8880 3.5720 105° East 487 560 35,000  Level FlightAware
08:25AM 50.8665 3.6978 105° East 490 564 35,000  Level FlightAware UK
08:25AM 50.8610 3.7290 105° East 486 559 35,000  Level FlightAware
08:26AM 50.8380 3.8630 105° East 486 559 35,000  Level FlightAware
08:27AM 50.8130 4.0040 106° East 487 560 35,000  Level FlightAware
08:27AM 50.7870 4.1500 106° East 487 560 35,000  Level FlightAware
08:28AM 50.7578 4.3139 106° East 490 564 35,000  Level FlightAware UK
08:28AM 50.7580 4.3110 106° East 486 559 35,000  Level FlightAware
08:29AM 50.7330 4.4500 106° East 485 558 35,000  Level FlightAware
08:29AM 50.7146 4.5596 106° East 490 564 35,000  Level FlightAware UK
08:29AM 50.7100 4.5790 106° East 485 558 35,000  Level FlightAware
08:30AM 50.6888 4.7024 106° East 488 562 35,000  Level FlightAware UK
08:31AM 50.6690 4.8030 106° East 484 557 35,000  Level FlightAware
08:31AM 50.6350 4.9900 106° East 486 559 35,000  Level FlightAware
08:32AM 50.6120 5.1080 107° East 486 559 35,000  Level FlightAware
08:33AM 50.5870 5.2440 106° East 487 560 35,000  Level FlightAware
08:34AM 50.5390 5.4240 113° Southeast 492 566 35,000  Level FlightAware
08:34AM 50.4850 5.5410 126° Southeast 494 568 35,000  Level FlightAware
08:35AM 50.4360 5.6480 126° Southeast 494 568 35,000  Level FlightAware
08:36AM 50.3760 5.7740 127° Southeast 494 568 35,000  Level FlightAware
08:36AM 50.3220 5.8890 126° Southeast 494 568 35,000  Level FlightAware
08:37AM 50.2650 6.0090 127° Southeast 494 568 35,000  Level FlightAware
08:38AM 50.2120 6.1180 127° Southeast 490 564 35,000  Level FlightAware
08:38AM 50.1530 6.2440 126° Southeast 491 565 35,000  Level FlightAware
08:39AM 50.0990 6.3590 126° Southeast 493 567 35,000  Level FlightAware
08:40AM 50.0530 6.4850 120° Southeast 489 563 35,000  Level FlightAware
08:40AM 50.0000 6.6260 120° Southeast 490 564 35,000  Level FlightAware
08:41AM 49.9550 6.7450 120° Southeast 490 564 35,000  Level FlightAware
08:42AM 49.9010 6.8610 126° Southeast 498 573 35,000  Level FlightAware
08:43AM 49.8350 6.9940 128° Southeast 497 572 35,000  Level FlightAware
08:43AM 49.7700 7.1230 128° Southeast 498 573 35,000  Level FlightAware
08:44AM 49.7110 7.2370 129° Southeast 498 573 35,000  Level FlightAware
08:47AM 49.5277 7.7169 120° Southeast  Level Estimated
08:48AM 49.4557 7.9029 121° Southeast  Level Estimated
08:49AM 49.3835 8.0884 121° Southeast  Level Estimated
08:50AM 49.3109 8.2732 121° Southeast  Level Estimated
08:51AM 49.2381 8.4576 121° Southeast  Level Estimated
08:52AM 49.1650 8.6414 121° Southeast  Level Estimated
08:53AM 49.0915 8.8247 121° Southeast  Level Estimated
08:54AM 49.0178 9.0074 122° Southeast  Level Estimated
08:55AM 48.9438 9.1896 122° Southeast  Level Estimated
08:56AM 48.8695 9.3713 122° Southeast  Level Estimated
08:57AM 48.7950 9.5524 122° Southeast  Level Estimated
08:58AM 48.7201 9.7329 122° Southeast  Level Estimated
08:59AM 48.6450 9.9130 122° Southeast  Level Estimated
09:00AM 48.5696 10.0925 122° Southeast  Level Estimated
09:01AM 48.4939 10.2714 123° Southeast  Level Estimated
09:02AM 48.4179 10.4498 123° Southeast  Level Estimated
09:03AM 48.3417 10.6277 123° Southeast  Level Estimated
09:04AM 48.2651 10.8051 123° Southeast  Level Estimated
09:05AM 48.1884 10.9819 123° Southeast  Level Estimated
09:06AM 48.1113 11.1582 123° Southeast  Level Estimated
09:07AM 48.0340 11.3340 123° Southeast  Level Estimated
09:08AM 47.9564 11.5092 123° Southeast  Level Estimated
09:09AM 47.8785 11.6839 124° Southeast  Level Estimated
09:10AM 47.8004 11.8581 124° Southeast  Level Estimated
09:11AM 47.7220 12.0318 124° Southeast  Level Estimated
09:12AM 47.6433 12.2049 124° Southeast  Level Estimated
09:13AM 47.5644 12.3776 124° Southeast  Level Estimated
09:14AM 47.4852 12.5497 124° Southeast  Level Estimated
09:15AM 47.4058 12.7212 124° Southeast  Level Estimated
09:16AM 47.3261 12.8923 124° Southeast  Level Estimated
09:17AM 47.2462 13.0628 125° Southeast  Level Estimated
09:18AM 47.1660 13.2329 125° Southeast  Level Estimated
09:19AM 47.0856 13.4024 125° Southeast  Level Estimated
09:20AM 47.0049 13.5714 125° Southeast  Level Estimated
09:21AM 46.9240 13.7399 125° Southeast  Level Estimated
09:22AM 46.8428 13.9079 125° Southeast  Level Estimated
09:23AM 46.7613 14.0754 125° Southeast  Level Estimated
09:24AM 46.6797 14.2423 125° Southeast  Level Estimated
09:25AM 46.5978 14.4088 126° Southeast  Level Estimated
09:26AM 46.5156 14.5748 126° Southeast  Level Estimated
09:27AM 46.4328 14.7411 126° Southeast  Level Estimated
09:28AM 46.3498 14.9069 126° Southeast  Level Estimated
09:29AM 46.2665 15.0722 126° Southeast  Level Estimated
09:30AM 46.1829 15.2370 126° Southeast  Level Estimated
09:31AM 46.0992 15.4012 126° Southeast  Level Estimated
09:31AM 45.0080 14.0300 126° Southeast 511 588 37,000  Level FlightAware
09:31AM 44.9490 14.1400 127° Southeast 512 589 37,000  Level FlightAware
09:32AM 46.0152 15.5650 126° Southeast  Level Estimated
09:32AM 44.8850 14.2580 127° Southeast 512 589 37,000  Level FlightAware
09:33AM 44.8360 14.3500 127° Southeast 513 590 37,000  Level FlightAware
09:33AM 44.7750 14.4620 127° Southeast 513 590 37,000  Level FlightAware
09:34AM 44.7080 14.5840 128° Southeast 511 588 37,000  Level FlightAware
09:35AM 44.6500 14.6910 127° Southeast 510 587 37,000  Level FlightAware
09:36AM 44.5700 14.8360 128° Southeast 508 585 37,000  Level FlightAware
09:36AM 44.5140 14.9370 128° Southeast 508 585 37,000  Level FlightAware
09:38AM 44.4360 15.0810 127° Southeast 505 581 37,000  Level FlightAware
09:38AM 44.3840 15.1720 129° Southeast 503 579 37,000  Level FlightAware
09:39AM 44.3190 15.2870 128° Southeast 503 579 37,000  Level FlightAware
09:40AM 44.2410 15.4250 128° Southeast 502 578 37,000  Level FlightAware
09:40AM 44.1770 15.5350 129° Southeast 505 581 37,000  Level FlightAware
09:41AM 44.0960 15.6290 140° Southeast 496 571 37,000  Level FlightAware
09:42AM 44.0250 15.7080 141° Southeast 496 571 37,000  Level FlightAware
09:43AM 43.9390 15.7900 146° Southeast 486 559 37,000  Level FlightAware
09:43AM 43.8820 15.8450 145° Southeast 492 566 37,000  Level FlightAware
09:44AM 43.7980 15.9220 147° Southeast 485 558 37,000  Level FlightAware
09:44AM 43.7260 15.9860 147° Southeast 492 566 37,000  Level FlightAware
09:45AM 43.6530 16.0470 149° Southeast 489 563 37,000  Level FlightAware
09:46AM 43.5720 16.1150 149° Southeast 497 572 37,000  Level FlightAware
09:46AM 43.4960 16.1840 147° Southeast 494 568 37,000  Level FlightAware
09:47AM 43.4260 16.2670 139° Southeast 502 578 37,000  Level FlightAware
09:48AM 43.3570 16.3590 136° Southeast 507 583 37,000  Level FlightAware
09:48AM 43.2940 16.4430 136° Southeast 511 588 37,000  Level FlightAware
09:49AM 43.2200 16.5710 128° Southeast 516 594 37,000  Level FlightAware
09:50AM 43.1650 16.6820 124° Southeast 516 594 37,000  Level FlightAware
09:51AM 43.1040 16.8030 125° Southeast 516 594 37,000  Level FlightAware
09:51AM 43.0500 16.9100 125° Southeast 515 593 37,000  Level FlightAware
09:52AM 43.0020 17.0030 125° Southeast 514 592 37,000  Level FlightAware
09:53AM 42.9430 17.1170 125° Southeast 512 589 37,000  Level FlightAware
09:53AM 42.8870 17.2250 125° Southeast 512 589 37,000  Level FlightAware
09:54AM 42.8370 17.3230 125° Southeast 513 590 37,000  Level FlightAware
09:55AM 42.7830 17.4260 126° Southeast 513 590 37,000  Level FlightAware
09:55AM 42.7230 17.5420 125° Southeast 513 590 37,000  Level FlightAware
09:56AM 42.6680 17.6480 125° Southeast 513 590 37,000  Level FlightAware
09:57AM 42.6080 17.7610 126° Southeast 513 590 37,000  Level FlightAware
09:57AM 42.5490 17.8760 125° Southeast 514 592 37,000  Level FlightAware
09:58AM 42.4940 17.9790 126° Southeast 516 594 37,000  Level FlightAware
09:59AM 42.4410 18.0810 125° Southeast 516 594 37,000  Level FlightAware
09:59AM 42.3870 18.1840 125° Southeast 517 595 37,000  Level FlightAware
10:00AM 42.3270 18.2940 126° Southeast 515 593 37,000  Level FlightAware
10:01AM 42.2690 18.4040 125° Southeast 515 593 37,000  Level FlightAware
10:01AM 42.2100 18.5130 126° Southeast 514 592 37,000  Level FlightAware
10:02AM 42.1530 18.6200 126° Southeast 515 593 37,000  Level FlightAware
10:03AM 42.0880 18.7200 131° Southeast 512 589 37,000  Level FlightAware
10:04AM 42.0160 18.8250 133° Southeast 512 589 37,000  Level FlightAware
10:04AM 41.9770 18.8820 133° Southeast 513 590 37,000  Level FlightAware
10:05AM 41.8920 19.0100 132° Southeast 514 592 37,000  Level FlightAware
10:05AM 41.8300 19.1030 132° Southeast 514 592 37,000  Level FlightAware
10:06AM 41.7670 19.1980 132° Southeast 514 592 37,000  Level FlightAware
10:07AM 41.6960 19.3020 132° Southeast 514 592 37,000  Level FlightAware
10:08AM 41.6290 19.4040 131° Southeast 514 592 37,000  Level FlightAware
10:08AM 41.5620 19.5030 132° Southeast 513 590 37,000  Level FlightAware
10:09AM 41.4920 19.6070 132° Southeast 513 590 37,000  Level FlightAware
10:10AM 41.4300 19.6980 132° Southeast 511 588 37,000  Level FlightAware
10:10AM 41.3640 19.7910 133° Southeast 509 586 37,000  Level FlightAware
10:11AM 41.3220 19.8460 135° Southeast 508 585 37,000  Level FlightAware
10:12AM 41.2410 19.9540 135° Southeast 506 582 37,000  Level FlightAware
10:13AM 41.1490 20.0750 135° Southeast 503 579 37,000  Level FlightAware
10:13AM 41.0990 20.1410 135° Southeast 502 578 37,000  Level FlightAware
10:14AM 41.0270 20.2390 134° Southeast 502 578 37,000  Level FlightAware
10:14AM 40.9590 20.3290 135° Southeast 504 580 37,000  Level FlightAware
10:15AM 40.8890 20.4200 135° Southeast 504 580 37,000  Level FlightAware
10:16AM 40.8310 20.4990 134° Southeast 504 580 37,000  Level FlightAware
10:17AM 40.7460 20.6100 135° Southeast 506 582 37,000  Level FlightAware
10:17AM 40.6860 20.6880 135° Southeast 509 586 37,000  Level FlightAware
10:18AM 40.6130 20.7840 135° Southeast 510 587 37,000  Level FlightAware
10:19AM 40.5430 20.8740 136° Southeast 511 588 37,000  Level FlightAware
10:19AM 40.4680 20.9710 135° Southeast 510 587 37,000  Level FlightAware
10:20AM 40.3930 21.0570 139° Southeast 510 587 37,000  Level FlightAware
10:21AM 40.3200 21.1410 139° Southeast 514 592 37,000  Level FlightAware
10:21AM 40.2440 21.2390 135° Southeast 524 603 37,000  Level FlightAware
10:22AM 40.1880 21.3180 133° Southeast 528 608 37,000  Level FlightAware
10:23AM 40.1160 21.4250 131° Southeast 529 609 37,000  Level FlightAware
10:23AM 40.0510 21.5180 132° Southeast 529 609 37,000  Level FlightAware
10:24AM 39.9780 21.6250 132° Southeast 526 605 37,000  Level FlightAware
10:25AM 39.9160 21.7140 132° Southeast 524 603 37,000  Level FlightAware
10:26AM 39.8500 21.8110 132° Southeast 524 603 37,000  Level FlightAware
10:26AM 39.7810 21.9090 132° Southeast 522 601 37,000  Level FlightAware
10:27AM 39.7230 21.9920 132° Southeast 521 600 37,000  Level FlightAware
10:28AM 39.6550 22.0900 132° Southeast 517 595 37,000  Level FlightAware
10:28AM 39.5850 22.1910 132° Southeast 516 594 37,000  Level FlightAware
10:29AM 39.5270 22.2750 132° Southeast 515 593 37,000  Level FlightAware
10:30AM 39.4630 22.3640 133° Southeast 516 594 37,000  Level FlightAware
10:30AM 39.3960 22.4600 132° Southeast 517 595 37,000  Level FlightAware
10:31AM 39.3270 22.5580 132° Southeast 517 595 37,000  Level FlightAware
10:32AM 39.2590 22.6540 132° Southeast 520 598 37,000  Level FlightAware
10:32AM 39.1890 22.7510 133° Southeast 522 601 37,000  Level FlightAware
10:33AM 39.1210 22.8470 132° Southeast 523 602 37,000  Level FlightAware
10:34AM 39.0640 22.9270 133° Southeast 523 602 37,000  Level FlightAware
10:34AM 38.9940 23.0230 133° Southeast 525 604 37,000  Level FlightAware
10:35AM 38.9280 23.1170 132° Southeast 526 605 37,000  Level FlightAware
10:36AM 38.8640 23.2040 133° Southeast 527 606 37,000  Level FlightAware
10:36AM 38.7990 23.2940 133° Southeast 528 608 37,000  Level FlightAware
10:37AM 38.7290 23.3900 133° Southeast 527 606 37,000  Level FlightAware
10:38AM 38.6650 23.4790 133° Southeast 525 604 37,000  Level FlightAware
10:38AM 38.5910 23.5810 133° Southeast 523 602 37,000  Level FlightAware
10:39AM 38.5230 23.6730 133° Southeast 522 601 37,000  Level FlightAware
10:40AM 38.4520 23.7700 133° Southeast 521 600 37,000  Level FlightAware
10:42AM 38.3219 24.0342 122° Southeast  Level Estimated
10:42AM 38.1980 24.1130 122° Southeast 520 598 37,000  Level FlightAware
10:43AM 38.2465 24.1861 122° Southeast  Level Estimated
10:43AM 38.1320 24.2000 134° Southeast 521 600 37,000  Level FlightAware
10:44AM 38.0680 24.2860 133° Southeast 517 595 37,000  Level FlightAware
10:44AM 37.9940 24.3850 133° Southeast 515 593 37,000  Level FlightAware
10:45AM 37.9260 24.4750 134° Southeast 514 592 37,000  Level FlightAware
10:46AM 37.8690 24.5640 129° Southeast 521 600 37,000  Level FlightAware
10:46AM 37.8200 24.6470 127° Southeast 523 602 37,000  Level FlightAware
10:47AM 37.7740 24.7270 126° Southeast 524 603 37,000  Level FlightAware
10:48AM 37.7120 24.8390 125° Southeast 524 603 37,000  Level FlightAware
10:48AM 37.6580 24.9310 127° Southeast 525 604 37,000  Level FlightAware
10:49AM 37.5970 25.0410 125° Southeast 526 605 37,000  Level FlightAware
10:50AM 37.5330 25.1540 126° Southeast 526 605 37,000  Level FlightAware
10:50AM 37.4990 25.2160 125° Southeast 525 604 37,000  Level FlightAware
10:51AM 37.4320 25.3300 126° Southeast 524 603 37,000  Level FlightAware
10:52AM 37.3770 25.4290 125° Southeast 522 601 37,000  Level FlightAware
10:52AM 37.3230 25.5230 126° Southeast 520 598 37,000  Level FlightAware
10:53AM 37.2580 25.6380 125° Southeast 518 596 37,000  Level FlightAware
10:54AM 37.1820 25.7690 126° Southeast 518 596 37,000  Level FlightAware
10:55AM 37.1190 25.8780 126° Southeast 515 593 37,000  Level FlightAware
10:55AM 37.0650 25.9700 126° Southeast 513 590 37,000  Level FlightAware
10:56AM 37.0110 26.0640 126° Southeast 512 589 37,000  Level FlightAware
10:57AM 36.9550 26.1600 126° Southeast 512 589 37,000  Level FlightAware
10:57AM 36.9000 26.2550 126° Southeast 511 588 37,000  Level FlightAware
10:58AM 36.8440 26.3500 126° Southeast 511 588 37,000  Level FlightAware
10:59AM 36.7880 26.4450 126° Southeast 511 588 37,000  Level FlightAware
10:59AM 36.7320 26.5380 127° Southeast 513 590 37,000  Level FlightAware
11:00AM 36.6700 26.6460 126° Southeast 515 593 37,000  Level FlightAware
11:01AM 36.6110 26.7440 127° Southeast 516 594 37,000  Level FlightAware
11:01AM 36.5560 26.8370 126° Southeast 517 595 37,000  Level FlightAware
11:02AM 36.4910 26.9440 127° Southeast 517 595 37,000  Level FlightAware
11:03AM 36.4130 27.0770 126° Southeast 516 594 37,000  Level FlightAware
11:04AM 36.3290 27.2160 127° Southeast 517 595 37,000  Level FlightAware
11:05AM 36.2690 27.3170 126° Southeast 515 593 37,000  Level FlightAware
11:05AM 36.2230 27.3940 127° Southeast 515 593 37,000  Level FlightAware
11:06AM 36.1710 27.4790 127° Southeast 515 593 37,000  Level FlightAware
11:07AM 36.1270 27.5540 126° Southeast 515 593 37,000  Level FlightAware
11:08AM 36.0170 27.7300 128° Southeast 37,000  Level FlightAware
11:08AM 35.9530 27.8340 127° Southeast 520 598 37,000  Level FlightAware
11:09AM 35.8990 27.9220 127° Southeast 521 600 37,000  Level FlightAware
11:10AM 35.8340 28.0280 127° Southeast 519 597 37,000  Level FlightAware
11:10AM 35.7750 28.1240 127° Southeast 516 594 37,000  Level FlightAware
11:11AM 35.7130 28.2250 127° Southeast 515 593 37,000  Level FlightAware
11:12AM 35.6330 28.3520 128° Southeast 510 587 37,000  Level FlightAware
11:13AM 35.5760 28.4440 127° Southeast 505 581 37,000  Level FlightAware
11:13AM 35.5210 28.5320 128° Southeast 504 580 37,000  Level FlightAware
11:14AM 35.4580 28.6320 128° Southeast 502 578 37,000  Level FlightAware
11:15AM 35.4060 28.7150 128° Southeast 502 578 37,000  Level FlightAware
11:15AM 35.3520 28.8010 128° Southeast 504 580 37,000  Level FlightAware
11:16AM 35.2940 28.8920 128° Southeast 504 580 37,000  Level FlightAware
11:17AM 35.2340 28.9870 128° Southeast 506 582 37,000  Level FlightAware
11:17AM 35.1850 29.0660 127° Southeast 506 582 37,000  Level FlightAware
11:18AM 35.1370 29.1440 127° Southeast 506 582 37,000  Level FlightAware
11:19AM 35.0710 29.2430 129° Southeast 503 579 37,000  Level FlightAware
11:20AM 34.9900 29.3690 128° Southeast 504 580 37,000  Level FlightAware
11:20AM 34.9190 29.4810 128° Southeast 506 582 37,000  Level FlightAware
11:21AM 34.8630 29.5690 128° Southeast 507 583 37,000  Level FlightAware
11:22AM 34.8010 29.6640 128° Southeast 508 585 37,000  Level FlightAware
11:22AM 34.7490 29.7440 128° Southeast 508 585 37,000  Level FlightAware
11:23AM 34.6820 29.8480 128° Southeast 507 583 37,000  Level FlightAware
11:24AM 34.6180 29.9470 128° Southeast 507 583 37,000  Level FlightAware
11:25AM 34.5590 30.0710 120° Southeast 518 596 37,000  Level FlightAware
11:25AM 34.5140 30.1710 119° Southeast 517 595 37,000  Level FlightAware
11:26AM 34.4610 30.2850 119° Southeast 520 598 37,000  Level FlightAware
11:27AM 34.4120 30.3830 121° Southeast 514 592 37,000  Level FlightAware
11:27AM 34.3640 30.4830 120° Southeast 514 592 37,000  Level FlightAware
11:28AM 34.3080 30.5970 121° Southeast 514 592 37,000  Level FlightAware
11:29AM 34.2580 30.6990 121° Southeast 514 592 37,000  Level FlightAware
11:29AM 34.2060 30.8060 120° Southeast 512 589 37,000  Level FlightAware
11:30AM 34.1550 30.9080 121° Southeast 514 592 37,000  Level FlightAware
11:31AM 34.1000 31.0210 120° Southeast 512 589 37,000  Level FlightAware
11:32AM 34.0510 31.1190 121° Southeast 512 589 37,000  Level FlightAware
11:32AM 34.0020 31.2200 120° Southeast 510 587 37,000  Level FlightAware
11:33AM 33.9460 31.3320 121° Southeast 510 587 37,000  Level FlightAware
11:34AM 33.8970 31.4290 121° Southeast 510 587 37,000  Level FlightAware
11:34AM 33.8490 31.5270 121° Southeast 509 586 37,000  Level FlightAware
11:35AM 33.7990 31.6260 121° Southeast 508 585 37,000  Level FlightAware
11:36AM 33.7510 31.7200 122° Southeast 505 581 37,000  Level FlightAware
11:36AM 33.7090 31.8070 120° Southeast 502 578 37,000  Level FlightAware
11:37AM 33.6530 31.9160 122° Southeast 502 578 37,000  Level FlightAware
11:38AM 33.6120 31.9970 121° Southeast 501 577 37,000  Level FlightAware
11:38AM 33.5630 32.0950 121° Southeast 502 578 37,000  Level FlightAware
11:39AM 33.5140 32.1920 121° Southeast 503 579 37,000  Level FlightAware
11:40AM 33.4650 32.2880 121° Southeast 504 580 37,000  Level FlightAware
11:40AM 33.4090 32.3970 122° Southeast 500 575 37,000  Level FlightAware
11:41AM 33.3610 32.4900 122° Southeast 499 574 37,000 -360 Level FlightAware
11:42AM 33.3030 32.6030 122° Southeast 499 574 36,500 -1,320 Descending FlightAware
11:42AM 33.2610 32.6860 121° Southeast 498 573 35,200 -2,340 Descending FlightAware
11:43AM 33.2060 32.7930 122° Southeast 491 565 33,400 -1,680 Descending FlightAware
11:44AM 33.1600 32.8810 122° Southeast 489 563 32,700 -2,220 Descending FlightAware
11:45AM 33.0990 32.9970 122° Southeast 469 540 29,900 -2,940 Descending FlightAware
11:46AM 33.0400 33.1110 122° Southeast 462 532 28,100 -2,280 Descending FlightAware
11:46AM 32.9950 33.1960 122° Southeast 448 516 26,700 -2,040 Descending FlightAware
11:47AM 32.9550 33.2750 121° Southeast 436 502 25,500 -1,980 Descending FlightAware
11:48AM 32.9070 33.3650 122° Southeast 424 488 24,000 -1,980 Descending FlightAware
11:48AM 32.8520 33.4700 122° Southeast 410 472 22,300 -1,860 Descending FlightAware
11:49AM 32.8060 33.5560 122° Southeast 397 457 20,900 -1,860 Descending FlightAware
11:50AM 32.7700 33.6260 121° Southeast 389 448 19,800 -1,740 Descending FlightAware
11:51AM 32.7340 33.6940 122° Southeast 389 448 18,700 -1,740 Descending FlightAware
11:51AM 32.6900 33.7750 123° Southeast 398 458 17,400 -1,860 Descending FlightAware
11:52AM 32.6540 33.8440 122° Southeast 389 448 16,200 -1,680 Descending FlightAware
11:53AM 32.6160 33.9150 122° Southeast 373 429 15,300 -1,200 Descending FlightAware
11:53AM 32.5790 33.9840 122° Southeast 350 403 14,600 -1,440 Descending FlightAware
11:54AM 32.5460 34.0450 123° Southeast 336 387 13,400 -1,680 Descending FlightAware
11:55AM 32.5120 34.1100 122° Southeast 329 379 12,400 -1,500 Descending FlightAware
11:55AM 32.4730 34.1750 125° Southeast 322 371 11,300 -1,380 Descending FlightAware
11:56AM 32.4280 34.2290 135° Southeast 316 364 10,400 -1,380 Descending FlightAware
11:56AM 32.4030 34.2580 136° Southeast 313 360 9,800 -1,440 Descending FlightAware
11:57AM 32.3880 34.2750 136° Southeast 311 358 9,500 -480 Descending FlightAware
11:57AM 32.3520 34.3170 135° Southeast 311 358 9,400 -1,320 Descending FlightAware
11:58AM 32.3250 34.3490 135° Southeast 302 348 8,100 -2,520 Descending FlightAware
11:58AM 32.3090 34.3680 135° Southeast 299 344 7,800 -540 Descending FlightAware
11:59AM 32.2830 34.3990 135° Southeast 298 343 7,700 -1,080 Descending FlightAware
11:59AM 32.2690 34.4270 121° Southeast 292 336 6,900 -1,860 Descending FlightAware
11:59AM 32.2540 34.4520 125° Southeast 287 330 6,500 -1,320 Descending FlightAware
12:00PM 32.2340 34.4850 126° Southeast 282 325 6,000 -840 Descending FlightAware
12:00PM 32.2010 34.5420 124° Southeast 280 322 5,500 -660 Descending FlightAware
12:01PM 32.1810 34.5760 125° Southeast 268 308 5,200 -480 Descending FlightAware
12:01PM 32.1720 34.5900 127° Southeast 268 308 5,200  Level FlightAware
12:01PM 32.1560 34.6180 124° Southeast 267 307 5,200  Level FlightAware
12:02PM 32.1330 34.6550 126° Southeast 267 307 5,200  Level FlightAware
12:02PM 32.1200 34.6760 126° Southeast 267 307 5,200  Level FlightAware
12:03PM 32.1030 34.7050 125° Southeast 268 308 5,200  Level FlightAware
12:03PM 32.0820 34.7410 125° Southeast 254 292 5,200  Level FlightAware
12:03PM 32.0740 34.7530 128° Southeast 246 283 5,200  Level FlightAware
12:04PM 32.0520 34.7850 129° Southeast 235 270 5,200 -240 Level FlightAware
12:04PM 32.0330 34.8060 137° Southeast 231 266 5,000 -600 Descending FlightAware
12:05PM 32.0100 34.8330 135° Southeast 234 269 4,700 -840 Descending FlightAware
12:05PM 31.9880 34.8570 137° Southeast 224 258 4,200 -1,380 Descending FlightAware
12:06PM 31.9730 34.8900 118° Southeast 200 230 3,300 -1,260 Descending FlightAware
12:06PM 31.9780 34.9160 77° East 193 222 2,900 -600 Descending FlightAware
12:07PM 31.9850 34.9470 75° East 186 214 2,700 -420 Descending FlightAware
12:09PM 32.0095 34.8769 292° West  Level Estimated
12:10PM 32.0095 34.8769 270° West  Level Estimated